Overview Statistics Trail Chart Weather Telemetry Raw packets
 

This is the latest recevied weather packets stored in our database for station/object Ostrach. If no packets are shown the sender has not sent any weather packets the latest 10 day(s).

<< 1 2 3 4 >>
Time Temp. Humidity Pressure Rain* Wind** Luminosity Snow
1788710530 25.56° C 42% 1020.9 hPa 0 mm - - -
1788708730 26.67° C 39% 1021.1 hPa 0 mm - - -
1788706930 27.22° C 40% 1021.2 hPa 0 mm - - -
1788705131 27.22° C 40% 1021.3 hPa 0 mm - - -
1788703331 26.67° C 45% 1021.8 hPa 0 mm - - -
1788701531 25.56° C 45% 1021.9 hPa 0 mm - - -
1788699731 25° C 47% 1022.2 hPa 0 mm - - -
1788697930 25° C 48% 1022.4 hPa 0 mm - - -
1788696130 24.44° C 48% 1022.8 hPa 0 mm - - -
1788694331 24.44° C 50% 1022.9 hPa 0 mm - - -
1788692530 23.89° C 51% 1023.2 hPa 0 mm - - -
1788690731 23.33° C 51% 1023.3 hPa 0 mm - - -
1788688931 22.22° C 55% 1023.7 hPa 0 mm - - -
1788687130 21.11° C 56% 1024 hPa 0 mm - - -
1788685330 20° C 62% 1024.1 hPa 0 mm - - -
1788683530 18.33° C 69% 1024.1 hPa 0 mm - - -
1788681730 16.11° C 78% 1024.2 hPa 0 mm - - -
1788679929 13.33° C 86% 1024.3 hPa 0 mm - - -
1788678129 12.22° C 91% 1024.1 hPa 0 mm - - -
1788676330 10.56° C 94% 1024 hPa 0 mm - - -
1788674529 10° C 94% 1024 hPa 0 mm - - -
1788672730 8.89° C 93% 1024 hPa 0 mm - - -
1788670931 8.89° C 93% 1023.7 hPa 0 mm - - -
1788669130 9.44° C 93% 1023.7 hPa 0 mm - - -
1788667329 9.44° C 92% 1023.5 hPa 0 mm - - -

* Rain since midnight (hover to see other rain measurements)
** Current wind speed in m/s (hover to see current wind gust speed)